Weather in Maralik

Armenia     40°35′00″N   43°52′03″E
temp.,
°C
wind,
m/s
gust,
m/s
humid.,
%
clouds,
%
prec.,
mm/h
press.,
hPa
HPBL,
m
7 may, fri
fri701:00+10nne3466100 0.1 101396
04:00+9nnw4782100 0.6 1013218
07:00+8n5786100 1.7 1014339
10:00+10n6776100 2.3 1016558
13:00+12n6765100 0.1 1015753
16:00+15nne6653100 0.2 10131128
19:00+14nne4659100 0.1 1014432
22:00+10n22715 0.1 101714
8 may, sat
sat801:00+8n33732 0.0 101957
04:00+7nne23770 0.0 101941
07:00+8nne22785 0.0 101980
10:00+14ssw345735 0.0 1017991
13:00+17s55465 0.0 10151337
16:00+19s65425 0.0 10131291
19:00+17sse575264 0.0 1013443
22:00+11sse11734 1.7 101512
9 may, sun
sun901:00+10n227797 0.8 101517
04:00+9nne22785 0.8 101523
07:00+11e117348 0.0 101432
10:00+16s6755100 0.0 1012708
13:00+19s884723 0.0 10091122
16:00+14nne5677100 2.9 1007244
19:00+10n8118899 7.3 1011631
22:00+8nnw3589100 20.3 1014457
10 may, mon
mon1001:00+5nnw8109093 1.9 1015618
04:00+2nnw81295100 2.6 1017764
07:000n71190100 4.6 1020706
10:00+3n58634 5.4 10201134
13:00+7n57521 0.0 10181286
16:00+8n564513 0.0 10161606
19:00+7n57503 0.0 1016960
22:00+2n47705 0.0 1020194
11 may, tue
tue1101:00+1n57745 0.0 1021231
04:000n57785 0.0 1022201
07:00+1n46754 0.0 1022254
10:00+7n33605 0.0 1018563
13:00+12ssw23431 0.0 10161198
16:00+14s33411 0.0 10141165
19:00+14s23500 0.0 1013208
22:00+8ne11615 0.0 101514